DAL490 KLAX-KBOI

Flight info

Callsign DAL490
Flight time 1h 30m
Altitude 40000
Route LADYJ4 CSTRO RYANN/N0485F410 PRNCS SADYL4
Aircraft A359/H-SDE2E3GHIJ3J4J5LM1ORWXY/LB1D1

Departure

Time 2026-04-24 07:35
Airport Los Angeles International Airport (KLAX)

Arrival

Time 2026-04-24 09:05
Airport Boise Air Terminal/Gowen Field (KBOI)
Time Latitude Longitude Altitude Speed Heading
2026-04-24 07:14 33.94261 -118.41123 133 ft 0 kts 83°
2026-04-24 07:25 33.94260 -118.41137 128 ft 4 kts 83°
2026-04-24 07:26 33.94257 -118.41170 132 ft 4 kts 83°
2026-04-24 07:26 33.94253 -118.41201 129 ft 4 kts 68°
2026-04-24 07:26 33.94239 -118.41217 125 ft 4 kts 359°
2026-04-24 07:26 33.94214 -118.41214 132 ft 2 kts 353°
2026-04-24 07:27 33.94213 -118.41214 132 ft 0 kts 353°
2026-04-24 07:29 33.94216 -118.41214 132 ft 3 kts 354°
2026-04-24 07:29 33.94250 -118.41218 125 ft 7 kts 354°
2026-04-24 07:29 33.94309 -118.41226 125 ft 10 kts 354°
2026-04-24 07:30 33.94394 -118.41239 126 ft 14 kts 352°
2026-04-24 07:30 33.94504 -118.41257 129 ft 17 kts 352°
2026-04-24 07:30 33.94632 -118.41278 130 ft 20 kts 352°
2026-04-24 07:30 33.94764 -118.41285 122 ft 12 kts 15°
2026-04-24 07:31 33.94797 -118.41235 132 ft 8 kts 68°
2026-04-24 07:31 33.94808 -118.41154 132 ft 12 kts 81°
2026-04-24 07:31 33.94820 -118.41043 129 ft 15 kts 83°
2026-04-24 07:31 33.94833 -118.40918 126 ft 15 kts 83°
2026-04-24 07:32 33.94845 -118.40788 128 ft 16 kts 83°
2026-04-24 07:32 33.94860 -118.40643 132 ft 19 kts 82°
2026-04-24 07:32 33.94878 -118.40481 132 ft 20 kts 83°
2026-04-24 07:32 33.94897 -118.40304 123 ft 22 kts 82°
2026-04-24 07:33 33.94911 -118.40157 126 ft 14 kts 86°
2026-04-24 07:33 33.94924 -118.40025 132 ft 17 kts 83°
2026-04-24 07:33 33.94944 -118.39944 132 ft 0 kts 56°
2026-04-24 07:33 33.94952 -118.39934 128 ft 6 kts 43°
2026-04-24 07:34 33.94996 -118.39919 132 ft 8 kts
2026-04-24 07:34 33.95039 -118.39954 129 ft 5 kts 286°
2026-04-24 07:34 33.95034 -118.40025 124 ft 19 kts 264°
2026-04-24 07:34 33.94983 -118.40523 126 ft 99 kts 263°
2026-04-24 07:35 33.94868 -118.41630 150 ft 163 kts 262°
2026-04-24 07:35 33.94720 -118.43049 685 ft 176 kts 263°
2026-04-24 07:35 33.94568 -118.44558 1371 ft 185 kts 263°
2026-04-24 07:35 33.94417 -118.46125 1860 ft 198 kts 263°
2026-04-24 07:36 33.94272 -118.47877 2143 ft 222 kts 266°
2026-04-24 07:36 33.94214 -118.49829 2457 ft 245 kts 269°
2026-04-24 07:36 33.94160 -118.51929 2996 ft 255 kts 266°
2026-04-24 07:36 33.94008 -118.54078 3683 ft 260 kts 264°
2026-04-24 07:37 33.93826 -118.56265 4387 ft 263 kts 265°
2026-04-24 07:37 33.93644 -118.58469 5089 ft 266 kts 265°
2026-04-24 07:37 33.93516 -118.60680 5760 ft 269 kts 271°
2026-04-24 07:37 33.93914 -118.62872 6421 ft 271 kts 296°
2026-04-24 07:38 33.95097 -118.64619 7065 ft 273 kts 322°
2026-04-24 07:38 33.96686 -118.65901 7661 ft 277 kts 328°
2026-04-24 07:38 33.98372 -118.67064 7950 ft 281 kts 334°
2026-04-24 07:38 34.00252 -118.67664 8005 ft 282 kts 356°
2026-04-24 07:39 34.02221 -118.67632 8001 ft 284 kts
2026-04-24 07:39 34.04197 -118.67480 8000 ft 285 kts
2026-04-24 07:39 34.06172 -118.67329 8000 ft 285 kts
2026-04-24 07:39 34.08145 -118.67095 8003 ft 285 kts
2026-04-24 07:40 34.10098 -118.66664 8185 ft 287 kts 11°
2026-04-24 07:40 34.12067 -118.66190 8785 ft 289 kts 11°
2026-04-24 07:40 34.14045 -118.65713 9459 ft 290 kts 11°
2026-04-24 07:40 34.16037 -118.65236 10089 ft 293 kts 10°
2026-04-24 07:41 34.18076 -118.64751 10442 ft 306 kts
2026-04-24 07:41 34.20221 -118.64244 10686 ft 321 kts
2026-04-24 07:41 34.22463 -118.63717 10925 ft 335 kts
2026-04-24 07:41 34.24819 -118.63462 11155 ft 346 kts 355°
2026-04-24 07:42 34.27232 -118.63848 11441 ft 354 kts 347°
2026-04-24 07:42 34.29668 -118.64409 11884 ft 358 kts 346°
2026-04-24 07:42 34.32091 -118.64977 12348 ft 361 kts 346°
2026-04-24 07:42 34.34597 -118.65559 12877 ft 363 kts 346°
2026-04-24 07:43 34.37052 -118.66125 13356 ft 365 kts 346°
2026-04-24 07:43 34.39555 -118.66701 13812 ft 367 kts 346°
2026-04-24 07:43 34.42111 -118.67286 14278 ft 371 kts 346°
2026-04-24 07:43 34.44621 -118.67848 14720 ft 373 kts 347°
2026-04-24 07:44 34.47230 -118.68353 15171 ft 376 kts 348°
2026-04-24 07:44 34.49793 -118.68833 15626 ft 379 kts 348°
2026-04-24 07:44 34.52437 -118.69337 16077 ft 381 kts 347°
2026-04-24 07:44 34.55062 -118.69841 16520 ft 383 kts 347°
2026-04-24 07:45 34.57668 -118.70346 16948 ft 386 kts 347°
2026-04-24 07:45 34.60319 -118.70863 17421 ft 388 kts 347°
2026-04-24 07:45 34.62999 -118.71386 17855 ft 390 kts 347°
2026-04-24 07:45 34.65693 -118.71913 18260 ft 393 kts 347°
2026-04-24 07:46 34.68405 -118.72446 18645 ft 396 kts 347°
2026-04-24 07:46 34.71095 -118.73141 19062 ft 394 kts 340°
2026-04-24 07:46 34.73638 -118.74334 19463 ft 391 kts 330°
2026-04-24 07:46 34.76038 -118.75895 19860 ft 392 kts 327°
2026-04-24 07:47 34.78416 -118.77533 20244 ft 394 kts 327°
2026-04-24 07:47 34.80810 -118.79185 20630 ft 395 kts 326°
2026-04-24 07:47 34.83200 -118.80835 20993 ft 397 kts 326°
2026-04-24 07:47 34.85611 -118.82504 21319 ft 399 kts 326°
2026-04-24 07:48 34.88032 -118.84174 21659 ft 401 kts 326°
2026-04-24 07:48 34.89641 -118.85280 21884 ft 402 kts 326°
2026-04-24 07:48 34.92085 -118.86962 22195 ft 404 kts 327°
2026-04-24 07:48 34.94543 -118.88653 22550 ft 405 kts 326°
2026-04-24 07:49 34.97005 -118.90348 22864 ft 407 kts 326°
2026-04-24 07:49 34.99482 -118.92055 23193 ft 409 kts 326°
2026-04-24 07:49 35.01967 -118.93769 23517 ft 410 kts 326°
2026-04-24 07:49 35.04453 -118.95486 23848 ft 412 kts 326°
2026-04-24 07:50 35.06952 -118.97213 24167 ft 413 kts 326°
2026-04-24 07:50 35.09457 -118.98946 24482 ft 415 kts 326°
2026-04-24 07:50 35.11939 -119.00664 24780 ft 417 kts 326°
2026-04-24 07:50 35.14502 -119.02439 25072 ft 419 kts 326°
2026-04-24 07:51 35.17008 -119.04176 25374 ft 420 kts 326°
2026-04-24 07:51 35.19552 -119.05942 25693 ft 422 kts 326°
2026-04-24 07:51 35.22112 -119.07718 26012 ft 423 kts 326°
2026-04-24 07:51 35.24679 -119.09501 26342 ft 424 kts 326°
2026-04-24 07:52 35.27250 -119.11289 26647 ft 426 kts 326°
2026-04-24 07:52 35.29840 -119.13089 26965 ft 429 kts 326°
2026-04-24 07:52 35.32436 -119.14897 27290 ft 431 kts 326°
2026-04-24 07:52 35.35059 -119.16722 27654 ft 432 kts 325°
2026-04-24 07:53 35.37678 -119.18549 28013 ft 434 kts 325°
2026-04-24 07:53 35.40307 -119.20377 28370 ft 436 kts 326°
2026-04-24 07:53 35.43065 -119.21987 28729 ft 443 kts 333°
2026-04-24 07:53 35.46008 -119.23075 29040 ft 453 kts 342°
2026-04-24 07:54 35.49204 -119.23570 29393 ft 462 kts 351°
2026-04-24 07:54 35.52432 -119.23721 29766 ft 466 kts 353°
2026-04-24 07:54 35.55640 -119.23774 30128 ft 469 kts 354°
2026-04-24 07:54 35.58914 -119.23784 30489 ft 471 kts 354°
2026-04-24 07:55 35.62204 -119.23785 30850 ft 474 kts 354°
2026-04-24 07:55 35.65510 -119.23795 31184 ft 477 kts 354°
2026-04-24 07:55 35.68842 -119.23813 31519 ft 479 kts 354°
2026-04-24 07:55 35.72182 -119.23839 31862 ft 481 kts 353°
2026-04-24 07:56 35.75542 -119.23872 32162 ft 484 kts 353°
2026-04-24 07:56 35.78914 -119.23909 32451 ft 486 kts 353°
2026-04-24 07:56 35.82308 -119.23948 32757 ft 488 kts 353°
2026-04-24 07:56 35.85710 -119.23986 33046 ft 490 kts 353°
2026-04-24 07:57 35.89126 -119.24026 33309 ft 493 kts 353°
2026-04-24 07:57 35.92558 -119.24065 33645 ft 493 kts 353°
2026-04-24 07:57 35.95985 -119.24103 34035 ft 492 kts 353°
2026-04-24 07:57 35.99404 -119.24139 34455 ft 491 kts 353°
2026-04-24 07:58 36.02815 -119.24175 34854 ft 490 kts 353°
2026-04-24 07:58 36.06220 -119.24212 35232 ft 489 kts 353°
2026-04-24 07:58 36.09621 -119.24250 35593 ft 488 kts 353°
2026-04-24 07:58 36.13016 -119.24289 35942 ft 488 kts 353°
2026-04-24 07:59 36.16415 -119.24330 36288 ft 488 kts 353°
2026-04-24 07:59 36.19809 -119.24368 36614 ft 488 kts 353°
2026-04-24 07:59 36.23214 -119.24407 36924 ft 488 kts 352°
2026-04-24 07:59 36.26610 -119.24444 37271 ft 487 kts 352°
2026-04-24 08:00 36.29997 -119.24483 37627 ft 485 kts 352°
2026-04-24 08:00 36.33363 -119.24520 37994 ft 483 kts 352°
2026-04-24 08:00 36.36723 -119.24557 38325 ft 482 kts 352°
2026-04-24 08:00 36.40072 -119.24595 38589 ft 482 kts 352°
2026-04-24 08:01 36.43388 -119.24634 38837 ft 483 kts 352°
2026-04-24 08:01 36.46788 -119.24672 39135 ft 482 kts 352°
2026-04-24 08:01 36.50141 -119.24709 39391 ft 482 kts 352°
2026-04-24 08:01 36.53497 -119.24748 39609 ft 483 kts 352°
2026-04-24 08:02 36.56810 -119.24788 39811 ft 483 kts 352°
2026-04-24 08:02 36.60184 -119.24828 39996 ft 484 kts 352°
2026-04-24 08:02 36.66947 -119.24908 40031 ft 486 kts 352°
2026-04-24 08:03 36.73705 -119.24984 40026 ft 486 kts 352°
2026-04-24 08:03 36.80461 -119.25060 40029 ft 485 kts 352°
2026-04-24 08:04 36.87209 -119.25136 40036 ft 485 kts 352°
2026-04-24 08:04 36.93953 -119.25214 40035 ft 485 kts 352°
2026-04-24 08:05 37.00705 -119.25293 40047 ft 485 kts 352°
2026-04-24 08:05 37.07447 -119.25371 40055 ft 484 kts 352°
2026-04-24 08:06 37.14179 -119.25449 40061 ft 484 kts 352°
2026-04-24 08:06 37.20869 -119.25526 40071 ft 484 kts 352°
2026-04-24 08:07 37.27597 -119.25605 40085 ft 483 kts 352°
2026-04-24 08:07 37.34314 -119.25683 40091 ft 483 kts 352°
2026-04-24 08:08 37.41031 -119.25759 40094 ft 483 kts 353°
2026-04-24 08:09 37.51121 -119.25880 40101 ft 483 kts 353°
2026-04-24 08:09 37.57834 -119.25959 40110 ft 482 kts 353°
2026-04-24 08:10 37.64539 -119.26037 40114 ft 482 kts 353°
2026-04-24 08:10 37.71242 -119.26117 40118 ft 482 kts 353°
2026-04-24 08:11 37.77945 -119.26193 40116 ft 482 kts 353°
2026-04-24 08:11 37.84653 -119.26272 40109 ft 482 kts 353°
2026-04-24 08:12 37.91314 -119.26349 40110 ft 482 kts 353°
2026-04-24 08:12 37.98020 -119.26428 40113 ft 481 kts 353°
2026-04-24 08:13 38.04716 -119.26503 40111 ft 481 kts 353°
2026-04-24 08:13 38.11397 -119.26589 40103 ft 480 kts 353°
2026-04-24 08:14 38.18069 -119.26673 40094 ft 479 kts 353°
2026-04-24 08:14 38.24736 -119.26752 40091 ft 479 kts 353°
2026-04-24 08:15 38.31406 -119.26830 40090 ft 479 kts 353°
2026-04-24 08:15 38.38067 -119.26909 40089 ft 478 kts 353°
2026-04-24 08:16 38.44727 -119.26992 40090 ft 478 kts 353°
2026-04-24 08:16 38.51342 -119.27072 40081 ft 479 kts 353°
2026-04-24 08:17 38.57999 -119.27153 40082 ft 479 kts 353°
2026-04-24 08:17 38.64664 -119.27231 40068 ft 478 kts 353°
2026-04-24 08:18 38.71315 -119.27310 40076 ft 478 kts 353°
2026-04-24 08:18 38.77972 -119.27390 40076 ft 478 kts 353°
2026-04-24 08:19 38.84631 -119.27471 40077 ft 478 kts 353°
2026-04-24 08:19 38.91280 -119.27552 40077 ft 478 kts 353°
2026-04-24 08:20 38.97934 -119.27632 40081 ft 477 kts 353°
2026-04-24 08:20 39.04531 -119.27714 40083 ft 478 kts 353°
2026-04-24 08:21 39.11185 -119.27796 40082 ft 478 kts 353°
2026-04-24 08:21 39.17834 -119.27879 40084 ft 478 kts 353°
2026-04-24 08:22 39.24512 -119.27175 40078 ft 488 kts
2026-04-24 08:22 39.31053 -119.24608 40077 ft 493 kts 13°
2026-04-24 08:23 39.37563 -119.21785 40063 ft 493 kts 13°
2026-04-24 08:23 39.44071 -119.18947 40064 ft 493 kts 13°
2026-04-24 08:24 39.50567 -119.16108 40051 ft 493 kts 13°
2026-04-24 08:24 39.57072 -119.13260 40047 ft 493 kts 13°
2026-04-24 08:25 39.63521 -119.10431 40058 ft 493 kts 13°
2026-04-24 08:25 39.70018 -119.07575 40049 ft 493 kts 13°
2026-04-24 08:26 39.76508 -119.04717 40045 ft 492 kts 13°
2026-04-24 08:26 39.83000 -119.01851 40046 ft 492 kts 13°
2026-04-24 08:27 39.89489 -118.98982 40048 ft 492 kts 13°
2026-04-24 08:27 39.95975 -118.96108 40045 ft 492 kts 13°
2026-04-24 08:28 40.02462 -118.93228 40049 ft 492 kts 13°
2026-04-24 08:28 40.08897 -118.90365 40039 ft 491 kts 14°
2026-04-24 08:29 40.15356 -118.87485 40036 ft 490 kts 14°
2026-04-24 08:29 40.21812 -118.84601 40044 ft 490 kts 14°
2026-04-24 08:30 40.28263 -118.81714 40044 ft 490 kts 14°
2026-04-24 08:30 40.34716 -118.78820 40044 ft 490 kts 14°
2026-04-24 08:31 40.41168 -118.75921 40039 ft 490 kts 14°
2026-04-24 08:31 40.47629 -118.73011 40044 ft 490 kts 14°
2026-04-24 08:32 40.54084 -118.70099 40045 ft 490 kts 14°
2026-04-24 08:32 40.60552 -118.67174 40041 ft 490 kts 14°
2026-04-24 08:33 40.67004 -118.64251 40038 ft 490 kts 14°
2026-04-24 08:33 40.73411 -118.61342 40031 ft 490 kts 14°
2026-04-24 08:34 40.79854 -118.58411 40039 ft 490 kts 14°
2026-04-24 08:34 40.86292 -118.55476 40043 ft 490 kts 14°
2026-04-24 08:35 40.92740 -118.52531 40042 ft 490 kts 14°
2026-04-24 08:35 40.99188 -118.49579 40038 ft 490 kts 14°
2026-04-24 08:36 41.05626 -118.46626 40037 ft 490 kts 14°
2026-04-24 08:36 41.12060 -118.43669 40037 ft 489 kts 14°
2026-04-24 08:37 41.18497 -118.40704 40036 ft 490 kts 14°
2026-04-24 08:37 41.23843 -118.38237 40032 ft 490 kts 14°
2026-04-24 08:38 41.30284 -118.35259 40032 ft 489 kts 14°
2026-04-24 08:38 41.36718 -118.32278 40036 ft 489 kts 14°
2026-04-24 08:39 41.43154 -118.29289 40033 ft 489 kts 14°
2026-04-24 08:39 41.49583 -118.26298 40038 ft 489 kts 14°
2026-04-24 08:40 41.56005 -118.23303 40033 ft 489 kts 14°
2026-04-24 08:40 41.62434 -118.20299 40039 ft 489 kts 14°
2026-04-24 08:41 41.68820 -118.17309 40037 ft 489 kts 14°
2026-04-24 08:41 41.75241 -118.14296 40040 ft 489 kts 14°
2026-04-24 08:42 41.81660 -118.11277 40034 ft 489 kts 14°
2026-04-24 08:42 41.88077 -118.08253 40033 ft 489 kts 14°
2026-04-24 08:43 41.94494 -118.05223 40031 ft 489 kts 14°
2026-04-24 08:43 42.00911 -118.02187 40038 ft 489 kts 14°
2026-04-24 08:44 42.07325 -117.99144 40022 ft 489 kts 14°
2026-04-24 08:44 42.13751 -117.96090 40030 ft 489 kts 14°
2026-04-24 08:45 42.20161 -117.93037 40028 ft 489 kts 14°
2026-04-24 08:45 42.26574 -117.89976 40028 ft 489 kts 14°
2026-04-24 08:46 42.32985 -117.86909 40026 ft 488 kts 14°
2026-04-24 08:46 42.39388 -117.83840 40027 ft 488 kts 14°
2026-04-24 08:47 42.45338 -117.79426 40030 ft 503 kts 38°
2026-04-24 08:47 42.49980 -117.72246 40028 ft 509 kts 47°
2026-04-24 08:48 42.54452 -117.64785 40025 ft 509 kts 46°
2026-04-24 08:48 42.58893 -117.57392 39378 ft 499 kts 46°
2026-04-24 08:48 42.61094 -117.53730 38474 ft 502 kts 46°
2026-04-24 08:49 42.63306 -117.50051 37292 ft 504 kts 46°
2026-04-24 08:49 42.65514 -117.46372 36056 ft 501 kts 46°
2026-04-24 08:49 42.67703 -117.42718 34897 ft 497 kts 46°
2026-04-24 08:49 42.69883 -117.39077 33795 ft 497 kts 46°
2026-04-24 08:50 42.72070 -117.35421 32657 ft 499 kts 46°
2026-04-24 08:50 42.74235 -117.31799 31460 ft 502 kts 46°
2026-04-24 08:50 42.76467 -117.28059 30146 ft 504 kts 46°
2026-04-24 08:50 42.78685 -117.24341 28775 ft 505 kts 45°
2026-04-24 08:51 42.80845 -117.20687 27416 ft 497 kts 45°
2026-04-24 08:51 42.82981 -117.17044 26043 ft 488 kts 45°
2026-04-24 08:51 42.85088 -117.13452 24667 ft 480 kts 45°
2026-04-24 08:51 42.87155 -117.09927 23222 ft 472 kts 45°
2026-04-24 08:52 42.89189 -117.06461 21782 ft 465 kts 45°
2026-04-24 08:52 42.91192 -117.03045 20335 ft 457 kts 45°
2026-04-24 08:52 42.93162 -116.99681 18886 ft 450 kts 45°
2026-04-24 08:52 42.95101 -116.96364 17447 ft 444 kts 45°
2026-04-24 08:53 42.96994 -116.93121 16485 ft 427 kts 45°
2026-04-24 08:53 42.98782 -116.90046 16160 ft 396 kts 45°
2026-04-24 08:53 43.00695 -116.86749 15626 ft 368 kts 45°
2026-04-24 08:53 43.01229 -116.85833 15388 ft 363 kts 45°
2026-04-24 08:54 43.03539 -116.81883 14437 ft 349 kts 45°
2026-04-24 08:54 43.05057 -116.79292 14019 ft 349 kts 45°
2026-04-24 08:54 43.06581 -116.76723 13643 ft 347 kts 45°
2026-04-24 08:54 43.08100 -116.74164 13399 ft 345 kts 46°
2026-04-24 08:55 43.09605 -116.71619 13137 ft 342 kts 46°
2026-04-24 08:55 43.11094 -116.69087 12887 ft 341 kts 46°
2026-04-24 08:55 43.12569 -116.66586 12657 ft 332 kts 46°
2026-04-24 08:55 43.13995 -116.64161 12378 ft 319 kts 46°
2026-04-24 08:56 43.15367 -116.61834 11929 ft 310 kts 46°
2026-04-24 08:56 43.16730 -116.59525 11707 ft 311 kts 47°
2026-04-24 08:56 43.18081 -116.57234 11465 ft 307 kts 47°
2026-04-24 08:56 43.19445 -116.54995 11135 ft 305 kts 44°
2026-04-24 08:57 43.20859 -116.52850 10784 ft 301 kts 44°
2026-04-24 08:57 43.22264 -116.50732 10514 ft 299 kts 45°
2026-04-24 08:57 43.23664 -116.48626 10251 ft 298 kts 44°
2026-04-24 08:57 43.25049 -116.46537 9990 ft 295 kts 44°
2026-04-24 08:58 43.26404 -116.44481 9746 ft 293 kts 45°
2026-04-24 08:58 43.27762 -116.42407 9493 ft 291 kts 45°
2026-04-24 08:58 43.29106 -116.40338 9236 ft 289 kts 46°
2026-04-24 08:58 43.30434 -116.38280 8996 ft 287 kts 47°
2026-04-24 08:59 43.31753 -116.36224 8759 ft 286 kts 47°
2026-04-24 08:59 43.33055 -116.34191 8548 ft 279 kts 47°
2026-04-24 08:59 43.34313 -116.32228 8396 ft 268 kts 47°
2026-04-24 08:59 43.35521 -116.30350 8234 ft 257 kts 47°
2026-04-24 09:00 43.36688 -116.28544 8071 ft 248 kts 46°
2026-04-24 09:00 43.37820 -116.26796 7819 ft 242 kts 47°
2026-04-24 09:00 43.38926 -116.25081 7571 ft 238 kts 47°
2026-04-24 09:00 43.40011 -116.23396 7320 ft 234 kts 47°
2026-04-24 09:01 43.41135 -116.21793 7073 ft 232 kts 38°
2026-04-24 09:01 43.42521 -116.20687 6803 ft 230 kts 23°
2026-04-24 09:01 43.44002 -116.19839 6436 ft 232 kts 20°
2026-04-24 09:01 43.45492 -116.19026 5984 ft 229 kts 21°
2026-04-24 09:02 43.46965 -116.18215 5551 ft 225 kts 21°
2026-04-24 09:02 43.48371 -116.17432 5304 ft 212 kts 21°
2026-04-24 09:02 43.49691 -116.16694 5037 ft 203 kts 22°
2026-04-24 09:02 43.50987 -116.15970 4780 ft 194 kts 22°
2026-04-24 09:03 43.52184 -116.15300 4555 ft 183 kts 22°
2026-04-24 09:03 43.53332 -116.14685 4318 ft 170 kts 17°
2026-04-24 09:03 43.54335 -116.14947 4611 ft 149 kts 317°
2026-04-24 09:03 43.54871 -116.16204 4579 ft 162 kts 278°
2026-04-24 09:04 43.54902 -116.17778 3982 ft 168 kts 268°
2026-04-24 09:04 43.55199 -116.19253 3511 ft 169 kts 299°
2026-04-24 09:04 43.55771 -116.20582 2994 ft 168 kts 286°
2026-04-24 09:04 43.56212 -116.21945 2876 ft 140 kts 286°
2026-04-24 09:05 43.56540 -116.22891 2863 ft 104 kts 291°
2026-04-24 09:05 43.56757 -116.23520 2851 ft 65 kts 290°
2026-04-24 09:05 43.56900 -116.24042 2849 ft 40 kts 317°
2026-04-24 09:05 43.57001 -116.24176 2844 ft 2 kts 339°
2026-04-24 09:06 43.57008 -116.24172 2848 ft 2 kts 18°
2026-04-24 09:06 43.57046 -116.24112 2850 ft 8 kts 64°
2026-04-24 09:06 43.57064 -116.24031 2851 ft 9 kts 73°
2026-04-24 09:06 43.57087 -116.23929 2849 ft 13 kts 77°
2026-04-24 09:07 43.57100 -116.23801 2850 ft 15 kts 82°
2026-04-24 09:07 43.57110 -116.23654 2847 ft 17 kts 87°
2026-04-24 09:07 43.57021 -116.23332 2843 ft 21 kts 114°
2026-04-24 09:08 43.56957 -116.23145 2843 ft 18 kts 118°
2026-04-24 09:08 43.56901 -116.22984 2849 ft 19 kts 114°
2026-04-24 09:08 43.56842 -116.22811 2848 ft 20 kts 115°
2026-04-24 09:08 43.56783 -116.22636 2850 ft 21 kts 115°
2026-04-24 09:09 43.56722 -116.22455 2855 ft 18 kts 114°
2026-04-24 09:09 43.56666 -116.22290 2854 ft 21 kts 115°
2026-04-24 09:09 43.56603 -116.22103 2852 ft 22 kts 114°
2026-04-24 09:09 43.56535 -116.21906 2857 ft 24 kts 116°
2026-04-24 09:10 43.56465 -116.21702 2863 ft 24 kts 115°
2026-04-24 09:10 43.56406 -116.21519 2868 ft 19 kts 102°
2026-04-24 09:10 43.56433 -116.21450 2870 ft 6 kts 27°
2026-04-24 09:10 43.56488 -116.21429 2871 ft 10 kts 347°
2026-04-24 09:11 43.56538 -116.21478 2870 ft 8 kts 339°
2026-04-24 09:11 43.56545 -116.21478 2870 ft 0 kts 357°